[[{"header":{"parameterUnit":"m.s-1","parameterCategory":1,"la1":30.2991,"la2":30.254,"lo1":-89.0895,"lo2":-89.0444,"dy":0.0017,"dx":0.0017,"nx":28,"ny":28,"refTime":"2024-10-02T09:00:00:Z","depth":0,"parameterNumber":2,"parameterNumberName":"U-component_of_WINDS"},"data":[0,0,0,0,0,0,0,0,0,0,0,0,0,0,0,0,0,0,0,0,0,0,0,0,0,0,0,0,0,0,0,0,0,0,0,0,0,0,0,0,0,0,0,0,0,0,0,0,0,0,0,0,0,0,0,0,0,0,0.4109,0.4109,0,0.4179,0.4179,0.418,0.4237,0.4238,0.4238,0.4239,0.4309,0.431,0.4312,0,0,0,0,0,0,0,0,0,0,0,0,0,0.4021,0.4022,0.4108,0.4109,0.411,0.4178,0.4179,0.418,0.4237,0.4238,0.4239,0.4239,0.4309,0.431,0.4312,0,0,0,0,0,0,0,0,0,0,0,0,0,0.4072,0.4023,0.4108,0.4147,0.4151,0.4178,0.4179,0.4181,0.4237,0.4238,0.4239,0.424,0.4308,0.431,0.4312,0.4306,0,0,0.4318,0.4319,0,0,0,0,0,0,0,0,0.4069,0.4075,0.414,0.4144,0.4149,0.42,0.4174,0.4223,0.4237,0.4204,0.4239,0.424,0.4272,0.4277,0.4288,0.4309,0.4312,0.4318,0.4319,0.432,0.4321,0,0,0,0,0,0,0,0.4065,0.4072,0.4136,0.4141,0.4146,0.416,0.4168,0.4184,0.4232,0.4207,0.4212,0.4219,0.4275,0.4286,0.429,0.4313,0.4318,0.432,0.4321,0.4322,0.433,0.4329,0,0,0,0,0,0,0.4056,0.4069,0.4134,0.4138,0.411,0.416,0.417,0.4183,0.4232,0.4241,0.4218,0.4222,0.4282,0.4288,0.4293,0.4287,0.432,0.4322,0.4323,0.4331,0.433,0.4329,0,0,0,0,0,0,0.4054,0.4061,0.4131,0.4105,0.4115,0.4161,0.4175,0.4184,0.4195,0.4241,0.4249,0.4221,0.4283,0.429,0.4302,0.429,0.4323,0.4325,0.4332,0.4331,0.4329,0.4276,0,0,0,0,0,0,0.4051,0.406,0.4059,0.4104,0.4116,0.414,0.4175,0.4184,0.4199,0.4204,0.4246,0.4254,0.4284,0.4299,0.4304,0.4293,0.4326,0.4333,0.4332,0.433,0.4279,0.4273,0.4268,0,0,0,0,0,0.4048,0.4042,0.4059,0.4066,0.4116,0.4139,0.4145,0.4182,0.4198,0.4196,0.4225,0.4252,0.4291,0.4299,0.4306,0.4296,0.4334,0.4332,0.433,0.4282,0.4274,0.4268,0,0,0,0,0,0,0.3994,0.4049,0.4068,0.4077,0.4103,0.4149,0.4148,0.4173,0.4195,0.4198,0.4242,0.4251,0.4257,0.4278,0.4286,0.4291,0.4316,0.4315,0.4277,0.427,0.4265,0.4259,0.4328,0,0,0,0,0,0.3983,0.3999,0.4045,0.4048,0.406,0.4102,0.4113,0.4138,0.4167,0.4178,0.4208,0.4234,0.4252,0.4263,0.4282,0.4283,0.4291,0.4279,0.4273,0.4268,0.4266,0.4266,0.426,0.4322,0.4322,0.4322,0,0,0.3961,0.3993,0.4,0.4038,0.4061,0.4074,0.4111,0.4124,0.4133,0.418,0.4192,0.4215,0.4247,0.4252,0.4256,0.427,0.4251,0.4266,0.4261,0.4262,0.4263,0.4257,0.4252,0.432,0.4321,0.4321,0,0,0.3927,0.3954,0.3958,0.398,0.4014,0.4042,0.4042,0.4084,0.4101,0.4114,0.4148,0.416,0.4191,0.4211,0.4225,0.4196,0.4221,0.4201,0.4171,0.417,0.4165,0.4161,0.4148,0.4143,0.42,0.4199,0.4199,0,0.3895,0.3917,0.3957,0.3967,0.3981,0.4024,0.4028,0.4047,0.4086,0.4094,0.4109,0.4146,0.4171,0.418,0.4173,0.4184,0.4184,0.4196,0.4163,0.4159,0.4156,0.4144,0.4139,0.4197,0.4197,0.4197,0.4197,0,0.3874,0.3889,0.3888,0.3924,0.3939,0.3945,0.3984,0.3994,0.4018,0.4043,0.4054,0.4085,0.411,0.4114,0.4138,0.4126,0.4133,0.4155,0.418,0.4146,0.4135,0.4131,0.4193,0.4194,0.4194,0.4195,0,0,0.3809,0.3865,0.3864,0.3879,0.392,0.3931,0.3939,0.3963,0.3969,0.3994,0.4,0.4024,0.4043,0.4059,0.4086,0.4085,0.4056,0.4106,0.4108,0.4094,0.4042,0.4023,0.4018,0.4073,0.4073,0.4072,0.4038,0,0.3779,0.3796,0.3831,0.3836,0.3848,0.3888,0.3895,0.3919,0.3942,0.3955,0.3981,0.3996,0.4022,0.4032,0.4033,0.4059,0.4046,0.4063,0.4077,0.4077,0.4066,0.4013,0.3994,0.3961,0.4035,0.4034,0.4034,0,0.3747,0.3769,0.3775,0.3812,0.3819,0.3824,0.3847,0.386,0.3888,0.3904,0.3921,0.3949,0.3958,0.3982,0.3993,0.4003,0.4011,0.4025,0.4025,0.4026,0.4052,0.401,0.3951,0.3945,0.4028,0.4028,0.4029,0,0.3695,0.3726,0.3733,0.3746,0.379,0.3792,0.381,0.3839,0.385,0.3871,0.3878,0.3899,0.391,0.3925,0.3958,0.3973,0.3963,0.3991,0.3976,0.3975,0.3971,0.397,0.3909,0.3979,0.3979,0.398,0.398,0,0.3658,0.3659,0.371,0.3714,0.3716,0.3755,0.3756,0.3778,0.3803,0.381,0.3847,0.3853,0.3897,0.3907,0.3933,0.3936,0.3941,0.3954,0.396,0.3949,0.3947,0.3954,0.3956,0.3978,0.3979,0.3979,0.3979,0,0.36,0.3634,0.3644,0.3685,0.3695,0.3694,0.3728,0.3732,0.3758,0.3767,0.3771,0.381,0.3824,0.3858,0.3882,0.3899,0.3894,0.3908,0.3885,0.3889,0.387,0.387,0.381,0.3802,0.3879,0.3878,0.3877,0,0.3572,0.3574,0.3615,0.3622,0.3639,0.3652,0.3663,0.3701,0.3711,0.3742,0.3742,0.3759,0.3774,0.3795,0.3824,0.3842,0.3854,0.3832,0.3857,0.3845,0.3851,0.3849,0.3848,0.3826,0.3825,0.3824,0.3823,0,0.3519,0.3535,0.3551,0.3572,0.3584,0.3602,0.3622,0.3627,0.3669,0.3678,0.3693,0.3705,0.3728,0.3744,0.3766,0.3783,0.3809,0.3815,0.3812,0.38,0.3785,0.379,0.3867,0.3816,0.3817,0.3817,0.3818,0.3818,0.3474,0.3476,0.3504,0.352,0.3539,0.3556,0.3561,0.3586,0.36,0.3621,0.3643,0.3655,0.368,0.3712,0.3727,0.3736,0.375,0.3746,0.3744,0.3742,0.3736,0.3785,0.3741,0.3741,0.3741,0.3741,0.3741,0,0.342,0.344,0.3454,0.348,0.3491,0.3516,0.3538,0.3546,0.3556,0.3577,0.3592,0.3607,0.3622,0.3652,0.3669,0.367,0.3682,0.3673,0.3672,0.3675,0.3724,0.3724,0.3662,0.3662,0.3662,0.3662,0.3662,0.3662,0.3393,0.3398,0.3417,0.343,0.345,0.3462,0.3472,0.3488,0.3505,0.352,0.3533,0.3553,0.3577,0.3596,0.3609,0.3618,0.3621,0.3607,0.3619,0.3664,0.3672,0.3679,0.3679,0.3608,0.3608,0.3568,0.3568,0.3568]},{"header":{"parameterUnit":"m.s-1","parameterCategory":1,"la1":30.2991,"la2":30.254,"lo1":-89.0895,"lo2":-89.0444,"dy":0.0017,"dx":0.0017,"nx":28,"ny":28,"refTime":"2024-10-02T09:00:00:Z","depth":0,"parameterNumber":3,"parameterNumberName":"V-component_of_WINDS"},"data":[0,0,0,0,0,0,0,0,0,0,0,0,0,0,0,0,0,0,0,0,0,0,0,0,0,0,0,0,0,0,0,0,0,0,0,0,0,0,0,0,0,0,0,0,0,0,0,0,0,0,0,0,0,0,0,0,0,0,2.0985,2.0984,0,2.0941,2.0941,2.094,2.0919,2.0919,2.0919,2.0919,2.0871,2.087,2.0869,0,0,0,0,0,0,0,0,0,0,0,0,0,2.1046,2.1045,2.0985,2.0984,2.0984,2.0941,2.0941,2.094,2.0919,2.0919,2.0919,2.0919,2.0872,2.087,2.0868,0,0,0,0,0,0,0,0,0,0,0,0,0,2.1013,2.1045,2.0985,2.0968,2.0966,2.0941,2.0941,2.094,2.0919,2.0919,2.0919,2.0919,2.0872,2.087,2.0868,2.0855,0,0,2.0862,2.0861,0,0,0,0,0,0,0,0,2.1014,2.101,2.0971,2.0969,2.0967,2.0936,2.0945,2.0911,2.0919,2.0937,2.0919,2.0919,2.0892,2.0889,2.088,2.0853,2.0851,2.0862,2.0861,2.086,2.0859,0,0,0,0,0,0,0,2.1017,2.1012,2.0967,2.0971,2.0968,2.0962,2.0957,2.0938,2.0915,2.0935,2.0934,2.0929,2.0891,2.0882,2.0879,2.085,2.0862,2.086,2.0859,2.0858,2.0809,2.0809,0,0,0,0,0,0,2.1022,2.1014,2.0969,2.0966,2.0991,2.0961,2.0955,2.0946,2.0915,2.0911,2.0929,2.0928,2.0886,2.0881,2.0877,2.086,2.086,2.0858,2.0857,2.081,2.0809,2.0809,0,0,0,0,0,0,2.1024,2.1018,2.0971,2.099,2.0983,2.096,2.0949,2.0945,2.0936,2.091,2.0906,2.0925,2.0886,2.088,2.0861,2.0858,2.0857,2.0856,2.081,2.081,2.0809,2.0825,0,0,0,0,0,0,2.1026,2.1019,2.1015,2.099,2.0982,2.0956,2.0949,2.0944,2.0933,2.0932,2.0905,2.09,2.0885,2.0864,2.0859,2.0855,2.0854,2.081,2.081,2.0809,2.0825,2.0826,2.0826,0,0,0,0,0,2.1028,2.1021,2.1015,2.101,2.0977,2.0956,2.0952,2.0935,2.0933,2.0928,2.0911,2.0901,2.0859,2.0862,2.0857,2.0852,2.081,2.081,2.0809,2.0824,2.0825,2.0826,0,0,0,0,0,0,2.1045,2.1017,2.101,2.0995,2.0978,2.0953,2.0946,2.0937,2.0919,2.0919,2.0898,2.0892,2.0875,2.0861,2.0865,2.0837,2.0833,2.0832,2.0847,2.0848,2.0848,2.0852,2.0852,0,0,0,0,0,2.1047,2.1034,2.101,2.0998,2.099,2.097,2.096,2.0949,2.093,2.0923,2.0905,2.0886,2.0868,2.0857,2.084,2.0823,2.0816,2.0817,2.0817,2.0818,2.0817,2.0806,2.0806,2.0808,2.0808,2.0808,0,0,2.1051,2.1034,2.1027,2.1001,2.0987,2.0973,2.0964,2.0949,2.0938,2.092,2.0901,2.0888,2.0865,2.0847,2.0838,2.0835,2.0815,2.0818,2.0818,2.0817,2.0806,2.0805,2.0805,2.0808,2.0808,2.0808,0,0,2.1051,2.1037,2.1026,2.1012,2.0991,2.0977,2.0974,2.095,2.0941,2.0922,2.0908,2.0894,2.0864,2.0848,2.0837,2.083,2.082,2.0825,2.0828,2.0818,2.0818,2.0817,2.0814,2.0814,2.0824,2.0824,2.0824,0,2.1058,2.1037,2.1021,2.1007,2.0996,2.098,2.0968,2.0955,2.0929,2.092,2.0918,2.088,2.0864,2.0842,2.084,2.0832,2.0827,2.0828,2.0819,2.0819,2.0818,2.0815,2.0814,2.0825,2.0825,2.0824,2.0824,0,2.1047,2.1032,2.1026,2.1002,2.099,2.0977,2.0957,2.0947,2.0937,2.0923,2.0903,2.0883,2.0861,2.0855,2.0844,2.0831,2.083,2.0824,2.0819,2.0819,2.0816,2.0814,2.0826,2.0825,2.0825,2.0825,0,0,2.1056,2.1024,2.1022,2.101,2.0986,2.0973,2.0959,2.0939,2.093,2.0912,2.0899,2.0874,2.0868,2.0855,2.0842,2.0833,2.0829,2.0828,2.0827,2.0828,2.0811,2.0816,2.0815,2.0822,2.0821,2.0821,2.0813,0,2.1052,2.1028,2.1012,2.0993,2.0979,2.0964,2.0951,2.0934,2.092,2.0905,2.0889,2.0872,2.0866,2.0858,2.0848,2.0831,2.0825,2.0832,2.0808,2.0807,2.0814,2.0813,2.0818,2.0811,2.0812,2.0812,2.0811,0,2.1045,2.1028,2.1008,2.0984,2.0978,2.0967,2.0947,2.0933,2.0913,2.0903,2.0888,2.0876,2.0859,2.0856,2.0831,2.0836,2.0826,2.0816,2.0815,2.0812,2.0809,2.081,2.0809,2.0808,2.0809,2.0809,2.081,0,2.1053,2.1026,2.101,2.1001,2.0973,2.0966,2.0953,2.0933,2.0922,2.0903,2.0895,2.0875,2.0864,2.0848,2.0829,2.0829,2.0806,2.0802,2.0797,2.0798,2.0793,2.0793,2.079,2.0787,2.0787,2.0787,2.0787,0,2.105,2.1038,2.1013,2.1003,2.0989,2.0971,2.0957,2.0943,2.0925,2.0912,2.0897,2.0884,2.0861,2.0845,2.083,2.0812,2.0807,2.0798,2.0794,2.0799,2.08,2.0791,2.0791,2.0786,2.0787,2.0787,2.0787,0,2.1057,2.104,2.1022,2.0997,2.099,2.0981,2.0959,2.0948,2.0934,2.0917,2.0912,2.0889,2.0869,2.085,2.0823,2.0813,2.0794,2.0789,2.0802,2.0799,2.0795,2.0796,2.0786,2.0784,2.0783,2.0783,2.0783,0,2.1056,2.1046,2.1021,2.1011,2.1,2.0984,2.0973,2.0954,2.0942,2.0918,2.091,2.089,2.0872,2.0841,2.0821,2.0801,2.0795,2.0793,2.0791,2.0797,2.0794,2.0795,2.0793,2.0793,2.0793,2.0793,2.0793,0,2.1056,2.1048,2.1032,2.1014,2.1,2.0984,2.0968,2.096,2.0938,2.0926,2.0906,2.0893,2.0866,2.0845,2.0822,2.0808,2.0797,2.0794,2.0792,2.0797,2.0804,2.0799,2.0803,2.0794,2.0794,2.0794,2.0794,2.0794,2.1058,2.1049,2.103,2.1012,2.0998,2.0983,2.0972,2.0956,2.094,2.0917,2.0907,2.0887,2.0866,2.0834,2.082,2.0803,2.08,2.0797,2.0796,2.0795,2.0796,2.0807,2.0799,2.0799,2.0799,2.0799,2.0799,0,2.1057,2.1044,2.1028,2.1006,2.0992,2.0984,2.0965,2.0954,2.0937,2.0919,2.0902,2.0879,2.0859,2.0838,2.0816,2.0806,2.0801,2.0801,2.0801,2.0798,2.08,2.0804,2.0806,2.0806,2.0806,2.0806,2.0806,2.0806,2.1055,2.1038,2.1028,2.1004,2.099,2.0972,2.0961,2.0947,2.0932,2.0908,2.0891,2.0878,2.0858,2.0835,2.0815,2.0809,2.0802,2.0804,2.0796,2.0799,2.0798,2.0798,2.0801,2.0802,2.0802,2.0796,2.0795,2.0795]}]]